www.pogodaiklimat.ru

ПОГОДА в Конкорде, CA

  • Прогноз погоды в Конкорде
  • Монитор погоды в Конкорде
  • Климат в Конкорде

АРХИВ ПОГОДЫ в Конкорде

Время (UTC), дата Ветер
(напр.,м/с)
 
Видим.   Явления Облачность Т
(С)
Тd
(С)
f
(%)
Тe
(С)
Тes
(С)
Комфортность

P
(гПа)

Po
(гПа)
Тmin
(С)
Tmax
(С)
R
(мм)
SD
(см)
20:53 23.06 СЗ  16 км    ясно  +35.0  +8.3  19  +33  +37  жарко  1011.3  1011.6         
21:53 23.06 З  16 км    ясно  +35.6  +8.3  19  +34  +40  очень
жарко 
1010.8  1011.2         
22:53 23.06 СЗ  16 км    ясно  +34.4  +12.2  26  +34  +41  очень
жарко 
1010.6  1010.9  +28.3  +35.6     
23:53 23.06 З  16 км    ясно  +33.3  +12.2  28  +34  +39  очень
жарко 
1010.3  1010.6         
00:53 24.06 З  16 км    ясно  +31.7  +10.0  26  +31  +34  жарко  1010.3  1010.6         
01:53 24.06 З  16 км    ясно  +28.9  +10.0  31  +29  +31  жарко  1010.6  1010.9         
02:53 24.06 З  16 км    ясно  +25.6  +9.4  36  +26  +26  жарко  1010.6  1010.9         
03:53 24.06   16 км    ясно  +23.9  +9.4  40  +25  +25  комфорт  1010.9  1011.2         
04:53 24.06 ЮЗ  16 км    ясно  +22.8  +7.8  38  +24  +24  комфорт  1010.9  1011.2  +22.8  +35.0     
05:53 24.06 Ю  16 км    ясно  +21.1  +7.2  41  +22  +22  комфорт  1010.6  1011.2         
06:53 24.06 С  16 км    ясно  +17.8  +10.0  60  +18  +18    1010.1  1010.6         
07:53 24.06 СЗ  16 км    ясно  +16.7  +12.2  75  +16  +16    1009.9  1010.2         
08:53 24.06 С  16 км    ясно  +15.6  +11.7  78  +15  +15    1009.6  1010.2         
09:53 24.06 С  16 км    ясно  +15.6  +11.1  75  +15  +15    1009.6  1009.9         
10:53 24.06   16 км    ясно  +15.0  +11.1  77  +15  +15    1009.4  1009.9  +14.4  +22.8     
11:53 24.06 З  16 км    ясно  +15.0  +11.1  77  +15  +15    1009.8  1010.2         
12:53 24.06 С  16 км    ясно  +15.6  +12.2  80  +16  +16    1010.0  1010.6         
13:53 24.06 нст  16 км    ясно  +18.3  +12.2  68  +19  +21    1010.2  1010.6         
14:53 24.06 нст  16 км    ясно  +20.0  +12.2  61  +22  +25  комфорт  1010.3  1010.9         
15:53 24.06 С  16 км    ясно  +22.8  +12.8  53  +26  +31  жарко  1010.2  1010.6         
16:53 24.06 СЗ  16 км    ясно  +23.9  +12.8  50  +26  +33  жарко  1010.1  1010.6  +14.4  +23.9     
17:53 24.06 СЗ  16 км    ясно  +26.7  +11.7  39  +28  +39  жарко  1009.7  1010.2         
18:53 24.06 СЗ  16 км    ясно  +28.9  +11.7  34  +30  +36  жарко  1009.1  1009.5         
19:53 24.06 СЗ  16 км    ясно  +31.1  +10.6  28  +31  +39  жарко  1008.6  1008.9         
20:53 24.06 ЮЗ  16 км    ясно  +32.8  +11.7  28  +33  +40  жарко  1008.1  1008.5         
21:53 24.06 З  16 км    ясно  +33.3  +10.0  24  +33  +38  жарко  1007.3  1007.9         
22:53 24.06 З  16 км    ясно  +31.1  +7.8  23  +30  +37  жарко  1007.1  1007.5  +23.3  +33.3     
23:53 24.06 З  16 км    ясно  +31.1  +10.0  27  +31  +34  жарко  1006.9  1007.5         
00:53 25.06 З  16 км    ясно  +28.3  +8.3  28  +28  +29  жарко  1006.8  1007.2         
01:53 25.06 З  16 км    ясно  +25.6  +7.8  32  +26  +27  жарко  1006.9  1007.2         
02:53 25.06 Ю  16 км    ясно  +22.8  +10.6  46  +25  +25  комфорт  1007.1  1007.5         
03:53 25.06 Ю  16 км    ясно  +21.1  +10.6  51  +23  +23  комфорт  1007.4  1007.9         
04:53 25.06 Ю  16 км    ясно  +20.6  +10.0  51  +22  +22  комфорт  1007.8  1008.2  +20.0  +31.7     
05:53 25.06 Ю  16 км    ясно  +19.4  +10.0  55  +20  +20    1007.5  1007.9         
06:53 25.06 Ю  16 км    ясно  +18.9  +8.9  52  +19  +19    1007.5  1007.9         
07:53 25.06 ЮЗ  16 км    ясно  +18.3  +8.9  54  +18  +18    1007.5  1007.9         
08:53 25.06 Ю  16 км    ясно  +17.8  +8.9  56  +18  +18    1007.3  1007.9         
09:53 25.06 Ю  16 км    ясно  +17.2  +8.9  58  +17  +17    1007.2  1007.9         
10:53 25.06 Ю  16 км    ясно  +16.7  +9.4  62  +16  +16    1007.4  1007.9  +16.7  +20.0     
11:53 25.06     16 км    ясно  +16.7  +8.9  60  +17  +17    1007.6  1008.2         
12:53 25.06 Ю  16 км    ясно  +17.2  +9.4  60  +17  +17    1007.8  1008.2         
13:53 25.06 Ю  16 км    ясно  +18.9  +10.0  56  +19  +20    1008.3  1008.9         
14:53 25.06 ЮЗ  16 км    ясно  +21.1  +10.0  49  +23  +24  комфорт  1008.8  1009.2         
15:53 25.06 Ю  16 км    ясно  +23.3  +10.6  45  +25  +28  комфорт  1008.7  1009.2         
16:53 25.06 З  16 км    ясно  +26.7  +6.7  28  +26  +33  жарко  1008.6  1008.9  +16.1  +26.7     
17:53 25.06 З  16 км    ясно  +28.3  +7.2  26  +28  +37  жарко  1008.5  1008.9         
18:53 25.06 нст  16 км    ясно  +29.4  +7.8  26  +29  +45  жарко  1008.4  1008.9         
19:53 25.06 ЮЗ  16 км    ясно  +30.0  +8.3  26  +29  +37  жарко  1008.2  1008.5         

 

Местоположение метеостанции Buchanan Field: широта 37.9917 долгота -122.0519 высота над уровнем моря 7 м.

В архиве по умолчанию представлена погода в Конкорде за последние 1-2 суток. Обновление информации о фактической погоде в базе происходит ежечасно! Архивные данные за месяц целиком и за предыдущие месяцы Вы можете получить, выбрав интересующий диапазон дат из раскрывающегося списка и нажав кнопку "Ввод!".

Внимание! Архив погоды МЕТАР в базе сайта хранится не более 60 дней. Нет смысла пытаться выбрать более раннюю дату.

Внимание! Время в таблицах - всемирное. Для получения местного времени необходимо прибавить поправку, которая в Конкорде равна -8 ч.

Ветер - указаны скорость ветра в м/с и направление, откуда дует ветер: С - северный, СВ - северо-восточный, В - восточный, ЮВ - юго-восточный, Ю - южный, ЮЗ - юго-западный, З - западный, СЗ - северо-западный.
Видимость - горизонтальная дальность видимости в метрах или километрах. При видимости от 1 до 10 км при отсутствии осадков обычно наблюдается дымка, при ухудшении видимости до 1 км и менее - туман. В сухую погоду видимость может ухудшаться дымом, пылью или мглою.
Атмосферные явления - указаны явления, наблюдавшиеся в указанный момент времени.
Облачность - указаны через наклонную черту верхняя и нижняя облачность в баллах и высота нижней границы облаков в метрах. Внимание: облачность, как и прочие метеорологические величины в США измеряются автоматическими метеостанциями. Указанные значения в баллах носят условный характер и показывают процент времени, в течение которого, в среднем, лазерный луч высотомера отражался от облаков обратно.
T - Температура воздуха - температура, измеренная на высоте 2 м над землей.
Td - Температура точки росы - температура, при понижении до которой содержащийся в воздухе водяной пар достигнет насыщения.
f - Относительная влажность воздуха - влажноcть воздуха, измеренная на высоте 2 м над землей.
Te - Эффективная температура - температура, которую ощущает одетый по сезону человек в тени. Характеристика душности погоды. При расчете учитывается влияние влажности воздуха и скорости ветра на теплоощущения человека.
Tes - Эффективная температура на солнце - температура, которую ощущает человек, с поправкой на солнечный нагрев. Характеристика знойности погоды. Зависит от высоты солнца над горизонтом, облачности и скорости ветра. Ночью, в пасмурную погоду, а также при ветре 12 м/с и более поправка равна нулю.
P - Атмосферное давление - приведенное к уровню моря атмосферное давление.
Po - Атмосферное давление - измеренное на уровне метеостанции атмосферное давление.
Tmin - Минимальная температура - минимум температуры воздуха на высоте 2 м над землей.
Tmax - Максимальная температура - максимум температуры воздуха на высоте 2 м над землей.
R - Количество осадков - Количество выпавших осадков за 3 или 6 часов, мм.
SD - Снежный покров - Высота снежного покрова, см.